Time,TemperatureF,DewpointF,PressureIn,WindDirection,WindDirectionDegrees,WindSpeedMPH,WindSpeedGustMPH,Humidity,HourlyPrecipIn,Conditions,Clouds,dailyrainin,SoftwareType,DateUTC
2013-02-12 00:00:00,48.5,45.4,30.12,NW,311,0.0,0.0,89,0.01,,---,0.33,VWS V14.01,2013-02-12 06:00:00,
2013-02-12 00:05:00,48.5,45.4,30.13,NW,311,0.0,0.0,89,0.01,,---,0.00,VWS V14.01,2013-02-12 06:05:00,
2013-02-12 00:10:00,48.5,45.4,30.11,NW,311,0.0,0.0,89,0.01,,---,0.00,VWS V14.01,2013-02-12 06:10:00,
2013-02-12 00:15:00,48.5,45.4,30.11,NW,311,0.0,0.0,89,0.01,,---,0.00,VWS V14.01,2013-02-12 06:15:00,
2013-02-12 00:20:00,48.5,45.4,30.12,NW,311,0.0,0.0,89,0.01,,---,0.00,VWS V14.01,2013-02-12 06:20:00,
2013-02-12 00:25:00,48.5,45.4,30.15,NW,309,0.0,0.0,89,0.01,,---,0.00,VWS V14.01,2013-02-12 06:25:00,
2013-02-12 00:30:00,48.5,45.4,30.15,NW,306,0.0,0.0,89,0.02,,---,0.01,VWS V14.01,2013-02-12 06:30:00,
2013-02-12 00:35:00,48.5,45.4,30.15,NW,312,0.0,1.0,89,0.02,,---,0.01,VWS V14.01,2013-02-12 06:35:00,
2013-02-12 00:40:00,48.5,45.4,30.15,NW,312,0.0,1.0,89,0.02,,---,0.01,VWS V14.01,2013-02-12 06:40:00,
2013-02-12 00:45:00,48.5,45.4,30.14,NW,312,0.0,1.0,89,0.02,,---,0.01,VWS V14.01,2013-02-12 06:45:00,
2013-02-12 00:50:00,48.5,45.4,30.15,NW,312,0.0,1.0,89,0.02,,---,0.01,VWS V14.01,2013-02-12 06:50:00,
2013-02-12 00:55:00,48.5,45.4,30.15,NW,312,0.0,1.0,89,0.02,,---,0.01,VWS V14.01,2013-02-12 06:55:00,
2013-02-12 01:00:00,48.5,45.4,30.15,NW,312,0.0,1.0,89,0.02,,---,0.01,VWS V14.01,2013-02-12 07:00:00,
2013-02-12 01:05:00,48.5,45.4,30.14,NW,312,0.0,0.0,89,0.01,,---,0.01,VWS V14.01,2013-02-12 07:05:00,
2013-02-12 01:10:00,48.5,45.4,30.15,NW,312,0.0,0.0,89,0.01,,---,0.01,VWS V14.01,2013-02-12 07:10:00,
2013-02-12 01:15:00,48.5,45.4,30.15,NW,312,0.0,0.0,89,0.01,,---,0.01,VWS V14.01,2013-02-12 07:15:00,
2013-02-12 01:20:00,48.5,45.4,30.14,NW,312,0.0,0.0,89,0.01,,---,0.01,VWS V14.01,2013-02-12 07:20:00,
2013-02-12 01:25:00,48.5,45.4,30.14,NW,312,0.0,0.0,89,0.01,,---,0.01,VWS V14.01,2013-02-12 07:25:00,
2013-02-12 01:30:00,48.5,45.4,30.14,NW,312,0.0,0.0,89,0.01,,---,0.01,VWS V14.01,2013-02-12 07:30:00,
2013-02-12 01:35:00,48.5,45.4,30.14,NW,312,0.0,0.0,89,0.00,,---,0.01,VWS V14.01,2013-02-12 07:35:00,
2013-02-12 01:40:00,48.5,45.4,30.14,NW,312,0.0,0.0,89,0.00,,---,0.01,VWS V14.01,2013-02-12 07:40:00,
2013-02-12 01:45:00,48.4,45.3,30.13,NW,312,0.0,0.0,89,0.00,,---,0.01,VWS V14.01,2013-02-12 07:45:00,
2013-02-12 01:50:00,48.4,45.3,30.12,NW,312,0.0,0.0,89,0.00,,---,0.01,VWS V14.01,2013-02-12 07:50:00,
2013-02-12 01:55:00,48.5,45.4,30.12,NW,312,0.0,0.0,89,0.00,,---,0.01,VWS V14.01,2013-02-12 07:55:00,
2013-02-12 02:00:00,48.4,45.3,30.11,NW,312,0.0,0.0,89,0.00,,---,0.01,VWS V14.01,2013-02-12 08:00:00,
2013-02-12 02:05:00,48.4,45.3,30.10,NW,312,0.0,0.0,89,0.00,,---,0.01,VWS V14.01,2013-02-12 08:05:00,
2013-02-12 02:10:00,48.4,45.3,30.11,NW,312,0.0,0.0,89,0.00,,---,0.01,VWS V14.01,2013-02-12 08:10:00,
2013-02-12 02:15:00,48.4,45.3,30.11,NW,312,0.0,0.0,89,0.00,,---,0.01,VWS V14.01,2013-02-12 08:15:00,
2013-02-12 02:20:00,48.4,45.3,30.11,NW,312,0.0,0.0,89,0.00,,---,0.01,VWS V14.01,2013-02-12 08:20:00,
2013-02-12 02:25:00,48.4,45.3,30.12,NW,312,0.0,0.0,89,0.00,,---,0.01,VWS V14.01,2013-02-12 08:25:00,
2013-02-12 02:30:00,48.3,45.2,30.11,NW,312,0.0,0.0,89,0.00,,---,0.01,VWS V14.01,2013-02-12 08:30:00,
2013-02-12 02:35:00,48.3,45.2,30.11,NW,312,0.0,0.0,89,0.00,,---,0.01,VWS V14.01,2013-02-12 08:35:00,
2013-02-12 02:40:00,48.3,45.2,30.12,NW,312,0.0,0.0,89,0.00,,---,0.01,VWS V14.01,2013-02-12 08:40:00,
2013-02-12 02:45:00,48.3,45.2,30.12,NW,312,0.0,0.0,89,0.00,,---,0.01,VWS V14.01,2013-02-12 08:45:00,
2013-02-12 02:50:00,48.3,45.2,30.12,NW,312,0.0,0.0,89,0.00,,---,0.01,VWS V14.01,2013-02-12 08:50:00,
2013-02-12 02:55:00,48.3,45.2,30.13,NW,312,0.0,0.0,89,0.00,,---,0.01,VWS V14.01,2013-02-12 08:55:00,
2013-02-12 03:00:00,48.3,45.2,30.12,NW,312,0.0,0.0,89,0.00,,---,0.01,VWS V14.01,2013-02-12 09:00:00,
2013-02-12 03:05:00,48.3,45.2,30.12,NW,312,0.0,0.0,89,0.00,,---,0.01,VWS V14.01,2013-02-12 09:05:00,
2013-02-12 03:10:00,48.3,45.2,30.11,NW,312,0.0,0.0,89,0.00,,---,0.01,VWS V14.01,2013-02-12 09:10:00,
2013-02-12 03:15:00,48.2,45.1,30.12,NW,312,0.0,0.0,89,0.00,,---,0.01,VWS V14.01,2013-02-12 09:15:00,
2013-02-12 03:20:00,48.2,45.1,30.12,NW,312,0.0,0.0,89,0.00,,---,0.01,VWS V14.01,2013-02-12 09:20:00,
2013-02-12 03:25:00,48.2,45.1,30.12,NW,312,0.0,0.0,89,0.00,,---,0.01,VWS V14.01,2013-02-12 09:25:00,
2013-02-12 03:30:00,48.2,45.1,30.12,NW,312,0.0,0.0,89,0.00,,---,0.01,VWS V14.01,2013-02-12 09:30:00,
2013-02-12 03:35:00,48.1,45.0,30.12,NW,312,0.0,0.0,89,0.00,,---,0.01,VWS V14.01,2013-02-12 09:35:00,
2013-02-12 03:40:00,48.1,45.0,30.12,NW,312,0.0,0.0,89,0.00,,---,0.01,VWS V14.01,2013-02-12 09:40:00,
2013-02-12 03:44:00,48.1,45.0,30.13,NW,312,0.0,0.0,89,0.00,,---,0.01,VWS V14.01,2013-02-12 09:44:00,
2013-02-12 03:49:00,48.1,45.0,30.13,NW,312,0.0,0.0,89,0.00,,---,0.01,VWS V14.01,2013-02-12 09:49:00,
2013-02-12 03:55:00,48.0,44.9,30.13,NW,312,0.0,0.0,89,0.00,,---,0.01,VWS V14.01,2013-02-12 09:55:00,
2013-02-12 04:00:00,48.0,44.9,30.13,NW,312,0.0,0.0,89,0.00,,---,0.01,VWS V14.01,2013-02-12 10:00:00,
2013-02-12 04:05:00,48.0,44.9,30.14,NW,312,0.0,0.0,89,0.01,,---,0.02,VWS V14.01,2013-02-12 10:05:00,
2013-02-12 04:10:00,47.9,44.8,30.14,NW,312,0.0,0.0,89,0.01,,---,0.02,VWS V14.01,2013-02-12 10:10:00,
2013-02-12 04:15:00,47.9,44.8,30.13,NW,312,0.0,0.0,89,0.01,,---,0.02,VWS V14.01,2013-02-12 10:15:00,
2013-02-12 04:20:00,47.9,44.8,30.13,NW,312,0.0,0.0,89,0.01,,---,0.02,VWS V14.01,2013-02-12 10:20:00,
2013-02-12 04:25:00,47.8,44.7,30.14,NW,312,0.0,0.0,89,0.01,,---,0.02,VWS V14.01,2013-02-12 10:25:00,
2013-02-12 04:30:00,47.8,44.7,30.13,NW,312,0.0,0.0,89,0.01,,---,0.02,VWS V14.01,2013-02-12 10:30:00,
2013-02-12 04:35:00,47.7,44.6,30.13,NW,312,0.0,0.0,89,0.01,,---,0.02,VWS V14.01,2013-02-12 10:35:00,
2013-02-12 04:40:00,47.6,44.5,30.14,NW,312,0.0,0.0,89,0.01,,---,0.02,VWS V14.01,2013-02-12 10:40:00,
2013-02-12 04:45:00,47.4,44.3,30.16,NW,312,0.0,0.0,89,0.01,,---,0.02,VWS V14.01,2013-02-12 10:45:00,
2013-02-12 04:49:00,47.3,44.2,30.18,NW,312,0.0,0.0,89,0.01,,---,0.02,VWS V14.01,2013-02-12 10:49:00,
2013-02-12 04:54:00,47.2,44.1,30.17,NW,308,0.0,0.0,89,0.01,,---,0.02,VWS V14.01,2013-02-12 10:54:00,
2013-02-12 04:59:00,47.1,44.0,30.16,NW,308,0.0,0.0,89,0.01,,---,0.02,VWS V14.01,2013-02-12 10:59:00,
2013-02-12 05:04:00,47.1,44.0,30.15,NW,308,0.0,0.0,89,0.02,,---,0.03,VWS V14.01,2013-02-12 11:04:00,
2013-02-12 05:09:00,47.0,43.9,30.14,NW,309,0.0,0.0,89,0.02,,---,0.03,VWS V14.01,2013-02-12 11:09:00,
2013-02-12 05:14:00,47.0,43.9,30.12,NW,308,0.0,0.0,89,0.02,,---,0.03,VWS V14.01,2013-02-12 11:14:00,
2013-02-12 05:19:00,46.9,43.8,30.12,NW,308,0.0,0.0,89,0.02,,---,0.03,VWS V14.01,2013-02-12 11:19:00,
2013-02-12 05:24:00,46.8,43.7,30.12,NW,308,0.0,0.0,89,0.02,,---,0.03,VWS V14.01,2013-02-12 11:24:00,
2013-02-12 05:29:00,46.8,43.7,30.12,NW,308,0.0,0.0,89,0.02,,---,0.03,VWS V14.01,2013-02-12 11:29:00,
2013-02-12 05:34:00,46.8,43.7,30.12,NW,308,0.0,0.0,89,0.01,,---,0.03,VWS V14.01,2013-02-12 11:34:00,
2013-02-12 05:39:00,46.7,43.6,30.12,NW,308,0.0,0.0,89,0.01,,---,0.03,VWS V14.01,2013-02-12 11:39:00,
2013-02-12 05:44:00,46.6,43.5,30.11,NW,308,0.0,0.0,89,0.01,,---,0.03,VWS V14.01,2013-02-12 11:44:00,
2013-02-12 05:49:00,46.5,43.4,30.11,NW,308,0.0,0.0,89,0.01,,---,0.03,VWS V14.01,2013-02-12 11:49:00,
2013-02-12 05:54:00,46.5,43.4,30.11,NW,308,0.0,0.0,89,0.01,,---,0.03,VWS V14.01,2013-02-12 11:54:00,
2013-02-12 05:59:00,46.4,43.3,30.10,NW,308,0.0,0.0,89,0.01,,---,0.03,VWS V14.01,2013-02-12 11:59:00,
2013-02-12 06:04:00,46.3,43.0,30.10,NW,308,0.0,0.0,88,0.01,,---,0.03,VWS V14.01,2013-02-12 12:04:00,
2013-02-12 06:09:00,46.1,42.8,30.10,NW,308,0.0,0.0,88,0.01,,---,0.03,VWS V14.01,2013-02-12 12:09:00,
2013-02-12 06:14:00,46.0,43.0,30.10,NW,308,0.0,0.0,89,0.01,,---,0.03,VWS V14.01,2013-02-12 12:14:00,
2013-02-12 06:19:00,45.9,42.8,30.11,NNW,341,0.0,0.0,89,0.01,,---,0.03,VWS V14.01,2013-02-12 12:19:00,
2013-02-12 06:24:00,45.8,42.8,30.11,NNW,341,0.0,0.0,89,0.01,,---,0.03,VWS V14.01,2013-02-12 12:24:00,
2013-02-12 06:29:00,45.7,42.4,30.11,NNW,341,0.0,0.0,88,0.01,,---,0.03,VWS V14.01,2013-02-12 12:29:00,
2013-02-12 06:34:00,45.6,42.3,30.11,NNW,341,0.0,0.0,88,0.00,,---,0.03,VWS V14.01,2013-02-12 12:34:00,
2013-02-12 06:39:00,45.5,42.2,30.11,NNW,341,0.0,0.0,88,0.00,,---,0.03,VWS V14.01,2013-02-12 12:39:00,
2013-02-12 06:44:00,45.5,42.2,30.10,NNW,341,0.0,0.0,88,0.00,,---,0.03,VWS V14.01,2013-02-12 12:44:00,
2013-02-12 06:49:00,45.4,42.3,30.11,NNW,341,0.0,0.0,89,0.00,,---,0.03,VWS V14.01,2013-02-12 12:49:00,
2013-02-12 06:54:00,45.3,42.3,30.11,NNW,341,0.0,0.0,89,0.00,,---,0.03,VWS V14.01,2013-02-12 12:54:00,
2013-02-12 06:59:00,45.2,42.2,30.10,NNW,341,0.0,0.0,89,0.00,,---,0.03,VWS V14.01,2013-02-12 12:59:00,
2013-02-12 07:04:00,45.1,41.8,30.11,NNW,341,0.0,0.0,88,0.00,,---,0.03,VWS V14.01,2013-02-12 13:04:00,
2013-02-12 07:09:00,45.1,41.8,30.10,NNW,341,0.0,0.0,88,0.00,,---,0.03,VWS V14.01,2013-02-12 13:09:00,
2013-02-12 07:14:00,45.1,41.8,30.11,NNW,341,0.0,0.0,88,0.00,,---,0.03,VWS V14.01,2013-02-12 13:14:00,
2013-02-12 07:19:00,45.0,41.7,30.10,NNW,341,0.0,0.0,88,0.00,,---,0.03,VWS V14.01,2013-02-12 13:19:00,
2013-02-12 07:24:00,44.9,41.6,30.10,NNW,341,0.0,0.0,88,0.00,,---,0.03,VWS V14.01,2013-02-12 13:24:00,
2013-02-12 07:29:00,44.9,41.6,30.10,NNW,341,0.0,0.0,88,0.00,,---,0.03,VWS V14.01,2013-02-12 13:29:00,
2013-02-12 07:34:00,44.9,41.9,30.10,NE,52,0.0,0.0,89,0.00,,---,0.03,VWS V14.01,2013-02-12 13:34:00,
2013-02-12 07:39:00,44.9,41.9,30.09,NE,52,0.0,0.0,89,0.00,,---,0.03,VWS V14.01,2013-02-12 13:39:00,
2013-02-12 07:44:00,44.9,41.9,30.09,NE,52,0.0,0.0,89,0.00,,---,0.03,VWS V14.01,2013-02-12 13:44:00,
2013-02-12 07:49:00,44.9,41.9,30.09,NE,52,0.0,0.0,89,0.00,,---,0.03,VWS V14.01,2013-02-12 13:49:00,
2013-02-12 07:54:00,44.9,41.9,30.09,NE,52,0.0,0.0,89,0.00,,---,0.03,VWS V14.01,2013-02-12 13:54:00,
2013-02-12 07:59:00,44.9,41.9,30.08,ENE,78,2.0,4.0,89,0.00,,---,0.03,VWS V14.01,2013-02-12 13:59:00,
2013-02-12 08:04:00,44.9,41.9,30.08,East,80,0.0,2.0,89,0.00,,---,0.03,VWS V14.01,2013-02-12 14:04:00,
2013-02-12 08:09:00,44.9,41.9,30.08,East,80,0.0,3.0,89,0.00,,---,0.03,VWS V14.01,2013-02-12 14:09:00,
2013-02-12 08:14:00,44.9,41.9,30.08,ESE,113,0.0,3.0,89,0.00,,---,0.03,VWS V14.01,2013-02-12 14:14:00,
2013-02-12 08:19:00,44.8,41.8,30.08,East,88,3.0,5.0,89,0.00,,---,0.03,VWS V14.01,2013-02-12 14:19:00,
2013-02-12 08:24:00,44.7,41.7,30.09,East,82,0.0,6.0,89,0.00,,---,0.03,VWS V14.01,2013-02-12 14:24:00,
2013-02-12 08:29:00,44.6,41.6,30.09,East,94,1.0,6.0,89,0.00,,---,0.03,VWS V14.01,2013-02-12 14:29:00,
2013-02-12 08:34:00,44.6,41.6,30.08,East,94,0.0,0.0,89,0.00,,---,0.03,VWS V14.01,2013-02-12 14:34:00,
2013-02-12 08:39:00,44.6,41.6,30.08,ENE,62,0.0,2.0,89,0.00,,---,0.03,VWS V14.01,2013-02-12 14:39:00,
2013-02-12 08:44:00,44.6,41.6,30.07,ENE,76,0.0,2.0,89,0.00,,---,0.03,VWS V14.01,2013-02-12 14:44:00,
2013-02-12 08:49:00,44.6,41.6,30.07,ENE,76,0.0,2.0,89,0.00,,---,0.03,VWS V14.01,2013-02-12 14:49:00,
2013-02-12 08:54:00,44.7,41.7,30.07,North,360,3.0,3.0,89,0.00,,---,0.03,VWS V14.01,2013-02-12 14:54:00,
2013-02-12 08:59:00,44.7,41.7,30.08,NE,48,0.0,4.0,89,0.00,,---,0.03,VWS V14.01,2013-02-12 14:59:00,
2013-02-12 09:04:00,44.7,41.7,30.09,ENE,76,0.0,0.0,89,0.00,,---,0.03,VWS V14.01,2013-02-12 15:04:00,
2013-02-12 09:09:00,44.7,41.7,30.10,ENE,76,0.0,0.0,89,0.00,,---,0.03,VWS V14.01,2013-02-12 15:09:00,
2013-02-12 09:14:00,44.8,41.8,30.10,NE,51,0.0,3.0,89,0.00,,---,0.03,VWS V14.01,2013-02-12 15:14:00,
2013-02-12 09:19:00,44.8,41.8,30.10,NE,51,0.0,3.0,89,0.00,,---,0.03,VWS V14.01,2013-02-12 15:19:00,
2013-02-12 09:24:00,44.9,41.9,30.10,NE,51,0.0,3.0,89,0.00,,---,0.03,VWS V14.01,2013-02-12 15:24:00,
2013-02-12 09:29:00,45.0,42.0,30.10,NE,51,0.0,3.0,89,0.00,,---,0.03,VWS V14.01,2013-02-12 15:29:00,
2013-02-12 09:34:00,45.1,42.1,30.10,East,92,3.0,3.0,89,0.00,,---,0.03,VWS V14.01,2013-02-12 15:34:00,
2013-02-12 09:39:00,45.1,41.8,30.10,East,90,0.0,4.0,88,0.00,,---,0.03,VWS V14.01,2013-02-12 15:39:00,
2013-02-12 09:44:00,45.1,41.8,30.08,East,85,2.0,5.0,88,0.00,,---,0.03,VWS V14.01,2013-02-12 15:44:00,
2013-02-12 09:49:00,45.1,41.8,30.10,ENE,76,3.0,5.0,88,0.00,,---,0.03,VWS V14.01,2013-02-12 15:49:00,
2013-02-12 09:54:00,45.2,41.9,30.09,East,88,8.0,8.0,88,0.00,,---,0.03,VWS V14.01,2013-02-12 15:54:00,
2013-02-12 09:59:00,45.3,42.0,30.09,ENE,74,0.0,8.0,88,0.00,,---,0.03,VWS V14.01,2013-02-12 15:59:00,
2013-02-12 10:04:00,45.4,42.1,30.09,ESE,103,0.0,3.0,88,0.00,,---,0.03,VWS V14.01,2013-02-12 16:04:00,
2013-02-12 10:09:00,45.6,42.3,30.08,East,98,2.0,3.0,88,0.00,,---,0.03,VWS V14.01,2013-02-12 16:09:00,
2013-02-12 10:14:00,45.7,42.4,30.07,ENE,72,0.0,3.0,88,0.00,,---,0.03,VWS V14.01,2013-02-12 16:14:00,
2013-02-12 10:19:00,45.8,42.5,30.08,ENE,72,0.0,3.0,88,0.00,,---,0.03,VWS V14.01,2013-02-12 16:19:00,
2013-02-12 10:24:00,45.9,42.3,30.07,ENE,63,0.0,6.0,87,0.00,,---,0.03,VWS V14.01,2013-02-12 16:24:00,
2013-02-12 10:29:00,46.0,42.3,30.06,East,100,0.0,6.0,87,0.00,,---,0.03,VWS V14.01,2013-02-12 16:29:00,
2013-02-12 10:34:00,46.1,42.5,30.07,East,88,0.0,1.0,87,0.00,,---,0.03,VWS V14.01,2013-02-12 16:34:00,
2013-02-12 10:39:00,46.2,42.5,30.06,ENE,69,3.0,3.0,87,0.00,,---,0.03,VWS V14.01,2013-02-12 16:39:00,
2013-02-12 10:44:00,46.1,42.2,30.08,ENE,68,2.0,4.0,86,0.00,,---,0.03,VWS V14.01,2013-02-12 16:44:00,
2013-02-12 10:49:00,46.1,41.8,30.08,ESE,111,4.0,4.0,85,0.00,,---,0.03,VWS V14.01,2013-02-12 16:49:00,
2013-02-12 10:54:00,46.1,41.8,30.07,ESE,116,3.0,6.0,85,0.00,,---,0.03,VWS V14.01,2013-02-12 16:54:00,
2013-02-12 10:59:00,46.1,41.2,30.07,SE,132,0.0,7.0,83,0.00,,---,0.03,VWS V14.01,2013-02-12 16:59:00,
2013-02-12 11:04:00,46.1,41.2,30.07,ESE,107,0.0,4.0,83,0.00,,---,0.03,VWS V14.01,2013-02-12 17:04:00,
2013-02-12 11:09:00,46.1,40.9,30.07,East,88,0.0,6.0,82,0.01,,---,0.04,VWS V14.01,2013-02-12 17:09:00,
2013-02-12 11:14:00,46.2,41.3,30.07,East,88,0.0,6.0,83,0.01,,---,0.04,VWS V14.01,2013-02-12 17:14:00,
2013-02-12 11:19:00,46.3,41.4,30.08,East,86,0.0,6.0,83,0.01,,---,0.04,VWS V14.01,2013-02-12 17:19:00,
2013-02-12 11:24:00,46.4,41.5,30.07,NNW,339,0.0,6.0,83,0.01,,---,0.04,VWS V14.01,2013-02-12 17:24:00,
2013-02-12 11:29:00,46.4,41.5,30.06,East,82,2.0,6.0,83,0.01,,---,0.04,VWS V14.01,2013-02-12 17:29:00,
2013-02-12 11:34:00,46.2,41.3,30.07,ENE,78,2.0,5.0,83,0.02,,---,0.05,VWS V14.01,2013-02-12 17:34:00,
2013-02-12 11:39:00,46.2,41.3,30.07,ENE,78,0.0,5.0,83,0.02,,---,0.05,VWS V14.01,2013-02-12 17:39:00,
2013-02-12 11:44:00,46.1,41.2,30.08,East,80,0.0,5.0,83,0.02,,---,0.05,VWS V14.01,2013-02-12 17:44:00,
2013-02-12 11:49:00,46.0,41.1,30.08,East,87,0.0,5.0,83,0.03,,---,0.06,VWS V14.01,2013-02-12 17:49:00,
2013-02-12 11:54:00,45.9,41.0,30.08,ESE,113,4.0,5.0,83,0.03,,---,0.06,VWS V14.01,2013-02-12 17:54:00,
2013-02-12 11:59:00,45.8,40.9,30.07,ESE,110,0.0,5.0,83,0.04,,---,0.07,VWS V14.01,2013-02-12 17:59:00,
2013-02-12 12:04:00,45.8,40.9,30.07,ESE,102,0.0,3.0,83,0.04,,---,0.07,VWS V14.01,2013-02-12 18:04:00,
2013-02-12 12:09:00,45.8,41.2,30.07,ESE,102,0.0,3.0,84,0.05,,---,0.08,VWS V14.01,2013-02-12 18:09:00,
2013-02-12 12:14:00,45.7,41.2,30.07,ESE,102,0.0,3.0,84,0.05,,---,0.08,VWS V14.01,2013-02-12 18:14:00,
2013-02-12 12:19:00,45.7,41.2,30.08,ESE,102,0.0,3.0,84,0.06,,---,0.09,VWS V14.01,2013-02-12 18:19:00,
2013-02-12 12:24:00,45.6,41.0,30.08,ESE,102,0.0,3.0,84,0.06,,---,0.09,VWS V14.01,2013-02-12 18:24:00,
2013-02-12 12:29:00,45.5,41.0,30.07,ESE,102,0.0,3.0,84,0.07,,---,0.10,VWS V14.01,2013-02-12 18:29:00,
2013-02-12 12:34:00,45.5,41.0,30.05,ESE,102,0.0,0.0,84,0.07,,---,0.11,VWS V14.01,2013-02-12 18:34:00,
2013-02-12 12:39:00,45.6,41.0,30.03,ENE,65,0.0,4.0,84,0.07,,---,0.11,VWS V14.01,2013-02-12 18:39:00,
2013-02-12 12:44:00,45.5,41.3,30.02,East,79,0.0,4.0,85,0.08,,---,0.12,VWS V14.01,2013-02-12 18:44:00,
2013-02-12 12:49:00,45.4,40.9,30.03,East,79,2.0,4.0,84,0.09,,---,0.13,VWS V14.01,2013-02-12 18:49:00,
2013-02-12 12:54:00,45.3,40.8,30.02,NNE,24,0.0,4.0,84,0.09,,---,0.13,VWS V14.01,2013-02-12 18:54:00,
2013-02-12 12:59:00,45.2,41.0,30.01,ENE,67,0.0,4.0,85,0.09,,---,0.13,VWS V14.01,2013-02-12 18:59:00,
2013-02-12 13:04:00,45.2,41.0,30.00,NNE,18,0.0,3.0,85,0.06,,---,0.13,VWS V14.01,2013-02-12 19:04:00,
2013-02-12 13:09:00,45.2,41.0,30.00,ENE,63,0.0,3.0,85,0.06,,---,0.13,VWS V14.01,2013-02-12 19:09:00,
2013-02-12 13:14:00,45.1,40.9,30.01,East,89,0.0,3.0,85,0.06,,---,0.13,VWS V14.01,2013-02-12 19:14:00,
2013-02-12 13:19:00,45.1,40.9,30.01,East,84,0.0,3.0,85,0.06,,---,0.13,VWS V14.01,2013-02-12 19:19:00,
2013-02-12 13:24:00,45.1,40.9,30.00,ENE,57,0.0,3.0,85,0.06,,---,0.13,VWS V14.01,2013-02-12 19:24:00,
2013-02-12 13:29:00,45.1,40.9,30.00,ENE,61,0.0,3.0,85,0.06,,---,0.13,VWS V14.01,2013-02-12 19:29:00,
2013-02-12 13:34:00,45.1,40.9,29.98,ENE,74,2.0,2.0,85,0.03,,---,0.13,VWS V14.01,2013-02-12 19:34:00,
2013-02-12 13:39:00,45.1,40.9,30.02,NNE,20,0.0,5.0,85,0.04,,---,0.14,VWS V14.01,2013-02-12 19:39:00,
2013-02-12 13:44:00,45.0,40.8,30.02,WNW,292,0.0,5.0,85,0.05,,---,0.15,VWS V14.01,2013-02-12 19:44:00,
2013-02-12 13:49:00,45.0,41.1,30.01,WNW,292,0.0,5.0,86,0.06,,---,0.16,VWS V14.01,2013-02-12 19:49:00,
2013-02-12 13:54:00,45.1,40.9,30.00,NNE,16,0.0,5.0,85,0.07,,---,0.17,VWS V14.01,2013-02-12 19:54:00,
2013-02-12 13:59:00,45.0,41.1,29.98,ENE,73,3.0,5.0,86,0.07,,---,0.17,VWS V14.01,2013-02-12 19:59:00,
2013-02-12 14:04:00,45.0,40.8,29.96,NE,48,2.0,6.0,85,0.04,,---,0.17,VWS V14.01,2013-02-12 20:04:00,
2013-02-12 14:09:00,45.0,41.1,29.95,East,88,0.0,6.0,86,0.04,,---,0.17,VWS V14.01,2013-02-12 20:09:00,
2013-02-12 14:14:00,44.9,41.0,29.94,East,83,0.0,6.0,86,0.04,,---,0.17,VWS V14.01,2013-02-12 20:14:00,
2013-02-12 14:19:00,44.9,41.0,29.94,NNW,336,4.0,6.0,86,0.04,,---,0.17,VWS V14.01,2013-02-12 20:19:00,
2013-02-12 14:24:00,44.9,41.0,29.93,North,355,0.0,6.0,86,0.04,,---,0.17,VWS V14.01,2013-02-12 20:24:00,
2013-02-12 14:29:00,44.9,41.0,29.92,ESE,116,3.0,6.0,86,0.04,,---,0.17,VWS V14.01,2013-02-12 20:29:00,
2013-02-12 14:34:00,44.9,41.0,29.94,NW,321,2.0,8.0,86,0.04,,---,0.17,VWS V14.01,2013-02-12 20:34:00,
2013-02-12 14:39:00,44.9,41.0,29.95,North,360,0.0,8.0,86,0.04,,---,0.17,VWS V14.01,2013-02-12 20:39:00,
2013-02-12 14:44:00,44.8,40.9,29.92,East,84,3.0,8.0,86,0.04,,---,0.17,VWS V14.01,2013-02-12 20:44:00,
2013-02-12 14:49:00,44.7,40.8,29.91,ESE,105,3.0,9.0,86,0.04,,---,0.17,VWS V14.01,2013-02-12 20:49:00,
2013-02-12 14:54:00,44.7,40.8,29.92,ENE,77,5.0,9.0,86,0.04,,---,0.17,VWS V14.01,2013-02-12 20:54:00,
2013-02-12 14:59:00,44.6,40.7,29.94,NW,321,2.0,10.0,86,0.04,,---,0.17,VWS V14.01,2013-02-12 20:59:00,
2013-02-12 15:04:00,44.6,40.7,29.96,WNW,290,0.0,0.0,86,0.01,,---,0.18,VWS V14.01,2013-02-12 21:04:00,
2013-02-12 15:09:00,44.5,40.6,29.94,East,82,0.0,3.0,86,0.03,,---,0.20,VWS V14.01,2013-02-12 21:09:00,
2013-02-12 15:14:00,44.5,40.6,29.99,NE,55,0.0,3.0,86,0.05,,---,0.22,VWS V14.01,2013-02-12 21:14:00,
2013-02-12 15:19:00,44.4,40.5,29.98,NE,55,0.0,3.0,86,0.06,,---,0.23,VWS V14.01,2013-02-12 21:19:00,
2013-02-12 15:24:00,44.5,40.6,29.96,ENE,61,0.0,3.0,86,0.06,,---,0.23,VWS V14.01,2013-02-12 21:24:00,
2013-02-12 15:29:00,44.4,40.5,29.95,ENE,61,0.0,3.0,86,0.07,,---,0.24,VWS V14.01,2013-02-12 21:29:00,
2013-02-12 15:34:00,44.4,40.5,29.95,ENE,71,0.0,0.0,86,0.07,,---,0.24,VWS V14.01,2013-02-12 21:34:00,
2013-02-12 15:39:00,44.3,40.4,29.95,East,79,0.0,0.0,86,0.07,,---,0.24,VWS V14.01,2013-02-12 21:39:00,
2013-02-12 15:44:00,44.3,40.4,29.96,ESE,102,0.0,3.0,86,0.07,,---,0.24,VWS V14.01,2013-02-12 21:44:00,
2013-02-12 15:49:00,44.3,40.4,29.95,North,9,6.0,6.0,86,0.07,,---,0.24,VWS V14.01,2013-02-12 21:49:00,
2013-02-12 15:54:00,44.3,40.4,29.92,ENE,74,5.0,6.0,86,0.08,,---,0.25,VWS V14.01,2013-02-12 21:54:00,
2013-02-12 15:59:00,44.2,40.3,29.92,NNW,342,0.0,7.0,86,0.09,,---,0.26,VWS V14.01,2013-02-12 21:59:00,
2013-02-12 16:04:00,44.2,40.3,29.89,East,82,0.0,5.0,86,0.09,,---,0.26,VWS V14.01,2013-02-12 22:04:00,
2013-02-12 16:09:00,44.1,40.2,29.88,East,88,3.0,6.0,86,0.09,,---,0.26,VWS V14.01,2013-02-12 22:09:00,
2013-02-12 16:14:00,44.0,40.1,29.88,East,88,3.0,9.0,86,0.09,,---,0.26,VWS V14.01,2013-02-12 22:14:00,
2013-02-12 16:19:00,43.9,40.0,29.89,ENE,76,0.0,9.0,86,0.10,,---,0.27,VWS V14.01,2013-02-12 22:19:00,
2013-02-12 16:24:00,43.8,39.9,29.91,East,81,0.0,9.0,86,0.10,,---,0.27,VWS V14.01,2013-02-12 22:24:00,
2013-02-12 16:29:00,43.8,39.9,29.91,NE,55,0.0,9.0,86,0.10,,---,0.27,VWS V14.01,2013-02-12 22:29:00,
2013-02-12 16:34:00,43.8,39.9,29.93,NE,43,0.0,0.0,86,0.04,,---,0.28,VWS V14.01,2013-02-12 22:34:00,
2013-02-12 16:39:00,43.8,39.9,29.91,ENE,75,0.0,4.0,86,0.04,,---,0.28,VWS V14.01,2013-02-12 22:39:00,
2013-02-12 16:44:00,43.8,39.9,29.93,East,97,0.0,4.0,86,0.04,,---,0.28,VWS V14.01,2013-02-12 22:44:00,
2013-02-12 16:49:00,43.8,40.2,29.92,East,79,3.0,4.0,87,0.04,,---,0.28,VWS V14.01,2013-02-12 22:49:00,
2013-02-12 16:54:00,43.8,40.2,29.92,East,80,0.0,6.0,87,0.04,,---,0.28,VWS V14.01,2013-02-12 22:54:00,
2013-02-12 16:59:00,43.8,40.2,29.92,ENE,59,0.0,6.0,87,0.05,,---,0.29,VWS V14.01,2013-02-12 22:59:00,
2013-02-12 17:04:00,43.8,40.2,29.92,NNE,15,5.0,6.0,87,0.04,,---,0.30,VWS V14.01,2013-02-12 23:04:00,
2013-02-12 17:09:00,43.8,40.2,29.91,ENE,65,2.0,6.0,87,0.05,,---,0.31,VWS V14.01,2013-02-12 23:09:00,
2013-02-12 17:14:00,43.7,40.1,29.90,East,82,3.0,6.0,87,0.06,,---,0.32,VWS V14.01,2013-02-12 23:14:00,
2013-02-12 17:19:00,43.7,40.1,29.90,ENE,60,0.0,6.0,87,0.06,,---,0.32,VWS V14.01,2013-02-12 23:19:00,
2013-02-12 17:24:00,43.6,39.7,29.90,ENE,69,2.0,6.0,86,0.07,,---,0.33,VWS V14.01,2013-02-12 23:24:00,
2013-02-12 17:29:00,43.5,39.6,29.90,ENE,74,3.0,6.0,86,0.07,,---,0.33,VWS V14.01,2013-02-12 23:29:00,
2013-02-12 17:34:00,43.4,39.8,29.90,ENE,78,4.0,4.0,87,0.07,,---,0.34,VWS V14.01,2013-02-12 23:34:00,
2013-02-12 17:39:00,43.4,39.8,29.90,ESE,104,4.0,5.0,87,0.08,,---,0.35,VWS V14.01,2013-02-12 23:39:00,
2013-02-12 17:44:00,43.3,39.7,29.89,ENE,62,2.0,9.0,87,0.10,,---,0.37,VWS V14.01,2013-02-12 23:44:00,
2013-02-12 17:49:00,43.3,39.7,29.89,East,101,3.0,10.0,87,0.11,,---,0.38,VWS V14.01,2013-02-12 23:49:00,
2013-02-12 17:54:00,43.2,39.6,29.90,ENE,74,3.0,10.0,87,0.12,,---,0.39,VWS V14.01,2013-02-12 23:54:00,
2013-02-12 17:59:00,43.2,39.6,29.89,ESE,108,0.0,10.0,87,0.13,,---,0.40,VWS V14.01,2013-02-12 23:59:00,
2013-02-12 18:04:00,43.2,39.6,29.89,WNW,288,0.0,2.0,87,0.12,,---,0.41,VWS V14.01,2013-02-13 00:04:00,
2013-02-12 18:09:00,43.2,39.6,29.91,East,83,0.0,3.0,87,0.13,,---,0.42,VWS V14.01,2013-02-13 00:09:00,
2013-02-12 18:14:00,43.2,39.6,29.92,East,83,0.0,3.0,87,0.14,,---,0.43,VWS V14.01,2013-02-13 00:14:00,
2013-02-12 18:19:00,43.2,39.6,29.91,North,360,0.0,3.0,87,0.15,,---,0.44,VWS V14.01,2013-02-13 00:19:00,
2013-02-12 18:24:00,43.2,39.6,29.91,North,360,0.0,3.0,87,0.16,,---,0.45,VWS V14.01,2013-02-13 00:24:00,
2013-02-12 18:29:00,43.2,39.6,29.92,East,92,1.0,3.0,87,0.17,,---,0.46,VWS V14.01,2013-02-13 00:29:00,
2013-02-12 18:34:00,43.1,39.5,29.91,ENE,61,0.0,5.0,87,0.14,,---,0.47,VWS V14.01,2013-02-13 00:34:00,
2013-02-12 18:39:00,43.1,39.5,29.91,ENE,78,4.0,9.0,87,0.14,,---,0.47,VWS V14.01,2013-02-13 00:39:00,
2013-02-12 18:44:00,43.1,39.5,29.89,ENE,76,5.0,9.0,87,0.14,,---,0.47,VWS V14.01,2013-02-13 00:44:00,
2013-02-12 18:49:00,43.1,39.5,29.89,ENE,57,1.0,9.0,87,0.14,,---,0.47,VWS V14.01,2013-02-13 00:49:00,
2013-02-12 18:54:00,43.1,39.5,29.89,NE,53,0.0,9.0,87,0.14,,---,0.47,VWS V14.01,2013-02-13 00:54:00,
2013-02-12 18:59:00,43.1,39.5,29.88,East,96,2.0,9.0,87,0.14,,---,0.47,VWS V14.01,2013-02-13 00:59:00,
2013-02-12 19:04:00,43.1,39.5,29.87,ENE,78,0.0,10.0,87,0.07,,---,0.47,VWS V14.01,2013-02-13 01:04:00,
2013-02-12 19:09:00,43.1,39.5,29.86,ENE,75,4.0,10.0,87,0.07,,---,0.47,VWS V14.01,2013-02-13 01:09:00,
2013-02-12 19:14:00,43.1,39.5,29.87,East,80,5.0,10.0,87,0.07,,---,0.47,VWS V14.01,2013-02-13 01:14:00,
2013-02-12 19:19:00,43.1,39.5,29.88,NE,46,4.0,10.0,87,0.07,,---,0.47,VWS V14.01,2013-02-13 01:19:00,
2013-02-12 19:24:00,43.1,39.8,29.88,ENE,67,3.0,10.0,88,0.07,,---,0.47,VWS V14.01,2013-02-13 01:24:00,
2013-02-12 19:29:00,43.1,39.8,29.88,ENE,61,2.0,10.0,88,0.07,,---,0.47,VWS V14.01,2013-02-13 01:29:00,
2013-02-12 19:34:00,43.1,39.8,29.88,ENE,75,3.0,5.0,88,0.01,,---,0.47,VWS V14.01,2013-02-13 01:34:00,
2013-02-12 19:39:00,43.1,39.8,29.86,ENE,74,2.0,6.0,88,0.01,,---,0.47,VWS V14.01,2013-02-13 01:39:00,
2013-02-12 19:44:00,43.2,39.9,29.86,East,90,0.0,6.0,88,0.01,,---,0.47,VWS V14.01,2013-02-13 01:44:00,
2013-02-12 19:49:00,43.2,39.9,29.86,ENE,77,5.0,7.0,88,0.01,,---,0.47,VWS V14.01,2013-02-13 01:49:00,
2013-02-12 19:54:00,43.2,39.9,29.85,ENE,75,2.0,9.0,88,0.01,,---,0.47,VWS V14.01,2013-02-13 01:54:00,
2013-02-12 19:59:00,43.2,39.9,29.85,ESE,116,5.0,9.0,88,0.01,,---,0.47,VWS V14.01,2013-02-13 01:59:00,
2013-02-12 20:03:00,43.2,39.9,29.85,NE,39,0.0,4.0,88,0.00,,---,0.47,VWS V14.01,2013-02-13 02:03:00,
2013-02-12 20:08:00,43.2,39.9,29.86,ENE,71,0.0,6.0,88,0.00,,---,0.47,VWS V14.01,2013-02-13 02:08:00,
2013-02-12 20:13:00,43.2,39.9,29.86,East,92,2.0,7.0,88,0.00,,---,0.47,VWS V14.01,2013-02-13 02:13:00,
2013-02-12 20:18:00,43.3,40.0,29.86,NE,39,0.0,7.0,88,0.00,,---,0.47,VWS V14.01,2013-02-13 02:18:00,
2013-02-12 20:23:00,43.3,40.0,29.86,ENE,64,1.0,7.0,88,0.00,,---,0.47,VWS V14.01,2013-02-13 02:23:00,
2013-02-12 20:28:00,43.3,40.0,29.87,East,80,4.0,7.0,88,0.00,,---,0.47,VWS V14.01,2013-02-13 02:28:00,
2013-02-12 20:33:00,43.3,40.0,29.86,NE,49,3.0,5.0,88,0.00,,---,0.47,VWS V14.01,2013-02-13 02:33:00,
2013-02-12 20:38:00,43.3,40.0,29.86,ESE,103,0.0,6.0,88,0.00,,---,0.47,VWS V14.01,2013-02-13 02:38:00,
2013-02-12 20:43:00,43.4,40.1,29.87,East,90,0.0,7.0,88,0.00,,---,0.47,VWS V14.01,2013-02-13 02:43:00,
2013-02-12 20:48:00,43.4,40.1,29.86,East,83,4.0,7.0,88,0.00,,---,0.47,VWS V14.01,2013-02-13 02:48:00,
2013-02-12 20:53:00,43.4,40.1,29.86,ESE,113,7.0,9.0,88,0.00,,---,0.47,VWS V14.01,2013-02-13 02:53:00,
2013-02-12 20:58:00,43.4,40.1,29.86,East,101,0.0,9.0,88,0.00,,---,0.47,VWS V14.01,2013-02-13 02:58:00,
2013-02-12 21:03:00,43.4,40.1,29.86,NE,36,0.0,5.0,88,0.00,,---,0.47,VWS V14.01,2013-02-13 03:03:00,
2013-02-12 21:08:00,43.4,40.1,29.85,ENE,76,3.0,5.0,88,0.00,,---,0.47,VWS V14.01,2013-02-13 03:08:00,
2013-02-12 21:13:00,43.4,40.1,29.85,ENE,69,4.0,7.0,88,0.00,,---,0.47,VWS V14.01,2013-02-13 03:13:00,
2013-02-12 21:18:00,43.5,40.2,29.85,East,82,3.0,7.0,88,0.00,,---,0.47,VWS V14.01,2013-02-13 03:18:00,
2013-02-12 21:23:00,43.5,40.2,29.85,ENE,77,2.0,7.0,88,0.00,,---,0.47,VWS V14.01,2013-02-13 03:23:00,
2013-02-12 21:28:00,43.5,40.2,29.84,East,91,4.0,7.0,88,0.00,,---,0.47,VWS V14.01,2013-02-13 03:28:00,
2013-02-12 21:33:00,43.5,40.2,29.83,ENE,76,3.0,5.0,88,0.00,,---,0.47,VWS V14.01,2013-02-13 03:33:00,
2013-02-12 21:38:00,43.6,40.3,29.83,East,86,3.0,6.0,88,0.00,,---,0.47,VWS V14.01,2013-02-13 03:38:00,
2013-02-12 21:43:00,43.6,40.3,29.82,East,100,4.0,6.0,88,0.00,,---,0.47,VWS V14.01,2013-02-13 03:43:00,
2013-02-12 21:48:00,43.6,40.3,29.82,ENE,66,3.0,7.0,88,0.00,,---,0.47,VWS V14.01,2013-02-13 03:48:00,
2013-02-12 21:53:00,43.6,40.3,29.83,ENE,67,2.0,8.0,88,0.00,,---,0.47,VWS V14.01,2013-02-13 03:53:00,
2013-02-12 21:58:00,43.6,40.3,29.82,East,84,5.0,8.0,88,0.00,,---,0.47,VWS V14.01,2013-02-13 03:58:00,
2013-02-12 22:03:00,43.6,40.3,29.82,East,91,2.0,4.0,88,0.00,,---,0.47,VWS V14.01,2013-02-13 04:03:00,
2013-02-12 22:08:00,43.7,40.4,29.81,ENE,75,4.0,6.0,88,0.00,,---,0.47,VWS V14.01,2013-02-13 04:08:00,
2013-02-12 22:13:00,43.7,40.4,29.82,East,80,3.0,6.0,88,0.00,,---,0.47,VWS V14.01,2013-02-13 04:13:00,
2013-02-12 22:18:00,43.7,40.4,29.81,East,96,2.0,6.0,88,0.00,,---,0.47,VWS V14.01,2013-02-13 04:18:00,
2013-02-12 22:23:00,43.7,40.4,29.81,ENE,70,3.0,6.0,88,0.00,,---,0.47,VWS V14.01,2013-02-13 04:23:00,
2013-02-12 22:28:00,43.8,40.5,29.81,East,80,0.0,6.0,88,0.00,,---,0.47,VWS V14.01,2013-02-13 04:28:00,
2013-02-12 22:33:00,43.8,40.5,29.81,ENE,74,3.0,5.0,88,0.00,,---,0.47,VWS V14.01,2013-02-13 04:33:00,
2013-02-12 22:38:00,43.8,40.5,29.81,East,86,4.0,7.0,88,0.00,,---,0.47,VWS V14.01,2013-02-13 04:38:00,
2013-02-12 22:43:00,43.8,40.5,29.81,ENE,74,0.0,7.0,88,0.00,,---,0.47,VWS V14.01,2013-02-13 04:43:00,
2013-02-12 22:48:00,43.9,40.6,29.81,ESE,113,4.0,7.0,88,0.00,,---,0.47,VWS V14.01,2013-02-13 04:48:00,
2013-02-12 22:53:00,44.0,40.7,29.80,ESE,107,3.0,7.0,88,0.00,,---,0.47,VWS V14.01,2013-02-13 04:53:00,
2013-02-12 22:58:00,44.0,40.7,29.80,East,85,2.0,7.0,88,0.00,,---,0.47,VWS V14.01,2013-02-13 04:58:00,
2013-02-12 23:00:00,44.0,40.7,29.80,ENE,78,3.0,7.0,88,0.00,,---,0.47,VWS V14.01,2013-02-13 05:00:00,
2013-02-12 23:05:00,44.0,40.7,29.80,ESE,105,2.0,6.0,88,0.00,,---,0.47,VWS V14.01,2013-02-13 05:05:00,
2013-02-12 23:10:00,44.1,40.8,29.80,East,79,4.0,6.0,88,0.00,,---,0.47,VWS V14.01,2013-02-13 05:10:00,
2013-02-12 23:15:00,44.1,40.8,29.80,SSE,154,0.0,6.0,88,0.00,,---,0.47,VWS V14.01,2013-02-13 05:15:00,
2013-02-12 23:20:00,44.2,40.9,29.79,ESE,107,0.0,6.0,88,0.00,,---,0.47,VWS V14.01,2013-02-13 05:20:00,
2013-02-12 23:25:00,44.2,40.9,29.80,East,84,0.0,6.0,88,0.00,,---,0.47,VWS V14.01,2013-02-13 05:25:00,
2013-02-12 23:30:00,44.2,40.9,29.80,NW,319,0.0,6.0,88,0.00,,---,0.47,VWS V14.01,2013-02-13 05:30:00,
2013-02-12 23:35:00,44.3,41.0,29.80,NW,319,0.0,0.0,88,0.00,,---,0.47,VWS V14.01,2013-02-13 05:35:00,
2013-02-12 23:40:00,44.3,41.0,29.80,East,90,1.0,2.0,88,0.00,,---,0.47,VWS V14.01,2013-02-13 05:40:00,
2013-02-12 23:45:00,44.3,41.0,29.80,East,86,0.0,4.0,88,0.00,,---,0.47,VWS V14.01,2013-02-13 05:45:00,
2013-02-12 23:50:00,44.4,41.1,29.80,East,86,0.0,4.0,88,0.00,,---,0.47,VWS V14.01,2013-02-13 05:50:00,
2013-02-12 23:55:00,44.4,41.1,29.80,East,101,0.0,4.0,88,0.00,,---,0.47,VWS V14.01,2013-02-13 05:55:00,